[[{"header":{"parameterUnit":"m.s-1","parameterCategory":1,"la1":30.2991,"la2":30.254,"lo1":-89.0895,"lo2":-89.0444,"dy":0.0017,"dx":0.0017,"nx":28,"ny":28,"refTime":"2024-07-10T03:00:00:Z","depth":0,"parameterNumber":2,"parameterNumberName":"U-component_of_WINDS"},"data":[0,0,0,0,0,0,0,0,0,0,0,0,0,0,0,0,0,0,0,0,0,0,0,0,0,0,0,0,0,0,0,0,0,0,0,0,0,0,0,0,0,0,0,0,0,0,0,0,0,0,0,0,0,0,0,0,0,0,1.0212,1.0213,0,1.0291,1.0292,1.0293,1.023,1.0227,1.0224,1.0222,1.031,1.0315,1.0319,0,0,0,0,0,0,0,0,0,0,0,0,0,1.0014,1.0018,1.0212,1.0213,1.0214,1.0291,1.0292,1.0293,1.023,1.0227,1.0224,1.0221,1.0308,1.0314,1.032,0,0,0,0,0,0,0,0,0,0,0,0,0,1.0098,1.0019,1.0212,1.0192,1.0191,1.0291,1.0292,1.0294,1.0231,1.0227,1.0223,1.0219,1.0306,1.0313,1.0321,1.0447,0,0,1.0343,1.0346,0,0,0,0,0,0,0,0,1.0093,1.0105,1.0194,1.0193,1.0192,1.0246,1.0254,1.0345,1.0232,1.0216,1.0222,1.0217,1.0292,1.0301,1.0325,1.0451,1.0455,1.0344,1.0348,1.0351,1.0353,0,0,0,0,0,0,0,1.0087,1.0101,1.0244,1.0195,1.0194,1.0181,1.0189,1.0271,1.0276,1.0217,1.0213,1.0222,1.0291,1.0318,1.0326,1.0456,1.0343,1.035,1.0354,1.0357,1.0692,1.0696,0,0,0,0,0,0,1.0082,1.0097,1.0241,1.0246,1.0131,1.0188,1.0196,1.0233,1.0275,1.0277,1.0226,1.0219,1.0307,1.0318,1.0329,1.0481,1.0351,1.0358,1.0362,1.0688,1.0693,1.0698,0,0,0,0,0,0,1.0078,1.0096,1.0238,1.017,1.0187,1.0196,1.0238,1.0237,1.0263,1.0282,1.0283,1.0251,1.0304,1.0319,1.0418,1.0483,1.0361,1.0368,1.0682,1.0689,1.0696,1.0785,0,0,0,0,0,0,1.0073,1.0095,1.0141,1.0172,1.0191,1.0324,1.0242,1.0241,1.0275,1.0267,1.0306,1.0309,1.0302,1.0407,1.0425,1.0491,1.0374,1.0677,1.0685,1.0693,1.0776,1.0794,1.0809,0,0,0,0,0,1.0066,1.0165,1.0144,1.0162,1.0249,1.0327,1.0339,1.0328,1.028,1.0328,1.0341,1.0307,1.0473,1.0418,1.0438,1.0506,1.0672,1.0683,1.0693,1.0769,1.079,1.0808,0,0,0,0,0,0,1.0144,1.0168,1.0146,1.0256,1.029,1.0317,1.0377,1.0351,1.04,1.0391,1.0377,1.0387,1.0491,1.0508,1.0447,1.0632,1.0565,1.058,1.0616,1.0637,1.0653,1.0647,1.038,0,0,0,0,0,1.0173,1.0233,1.0252,1.0348,1.0366,1.0368,1.0402,1.039,1.0426,1.0441,1.046,1.0498,1.0558,1.0598,1.0655,1.0778,1.0787,1.0835,1.0851,1.0865,1.0878,1.0946,1.0968,1.0731,1.0731,1.0731,0,0,1.0236,1.0257,1.0295,1.0364,1.0389,1.0453,1.0381,1.0452,1.05,1.0452,1.0546,1.0562,1.0604,1.0715,1.0766,1.0733,1.0945,1.0878,1.0888,1.0894,1.0959,1.0981,1.1001,1.0738,1.0737,1.0736,0,0,1.0383,1.0404,1.0486,1.0512,1.055,1.0551,1.0571,1.0602,1.061,1.0704,1.0669,1.0728,1.0832,1.0863,1.0892,1.1052,1.1024,1.1071,1.1157,1.1223,1.1242,1.1259,1.1317,1.1338,1.1084,1.1084,1.1084,0,1.0457,1.055,1.0533,1.0606,1.0638,1.0595,1.068,1.0707,1.0763,1.0787,1.0749,1.0879,1.0904,1.1023,1.1062,1.1087,1.1111,1.1067,1.124,1.1257,1.1272,1.1327,1.1349,1.1089,1.1089,1.1088,1.1088,0,1.0639,1.0705,1.0767,1.0819,1.0858,1.0938,1.0935,1.0977,1.0962,1.0968,1.1065,1.1093,1.1155,1.1183,1.117,1.1301,1.128,1.1241,1.1175,1.13,1.1352,1.1373,1.1097,1.1095,1.1094,1.1092,0,0,1.0838,1.0879,1.0903,1.0926,1.0965,1.1016,1.1094,1.1152,1.119,1.123,1.1296,1.1385,1.135,1.1384,1.1374,1.1432,1.1558,1.1387,1.1388,1.1419,1.1707,1.1736,1.1761,1.1539,1.1543,1.1547,1.1704,0,1.0988,1.112,1.1108,1.1235,1.1296,1.1257,1.1325,1.1358,1.1366,1.1421,1.143,1.1494,1.1442,1.1462,1.1518,1.1531,1.1616,1.1519,1.1604,1.1607,1.1596,1.1788,1.1819,1.1966,1.1724,1.1727,1.173,0,1.118,1.1224,1.1357,1.1387,1.1412,1.1474,1.1527,1.1579,1.1616,1.1618,1.1655,1.1636,1.1717,1.1647,1.176,1.1695,1.1729,1.1741,1.1746,1.1755,1.1677,1.1804,1.2013,1.2036,1.1762,1.1759,1.1757,0,1.1313,1.1407,1.1498,1.152,1.1556,1.1601,1.1619,1.1651,1.1687,1.1734,1.1758,1.1815,1.1847,1.1893,1.189,1.1839,1.2006,1.1935,1.2012,1.2012,1.205,1.2047,1.2269,1.2069,1.2069,1.2068,1.2068,0,1.1482,1.1566,1.1559,1.1615,1.1708,1.1694,1.1787,1.18,1.1829,1.189,1.186,1.1918,1.191,1.1969,1.1967,1.2062,1.2077,1.2082,1.2081,1.2086,1.2085,1.2109,1.2099,1.2074,1.2073,1.2072,1.2071,0,1.1648,1.1646,1.1743,1.177,1.1778,1.1846,1.187,1.1925,1.1929,1.2007,1.2024,1.2033,1.2101,1.2102,1.2181,1.218,1.2296,1.2283,1.2283,1.2281,1.2358,1.2351,1.2603,1.2637,1.2414,1.2416,1.2418,0,1.1756,1.1819,1.1852,1.1889,1.1909,1.1969,1.2005,1.1994,1.2034,1.2081,1.2131,1.2195,1.2246,1.2357,1.2372,1.2433,1.2422,1.2506,1.2431,1.2434,1.2425,1.2422,1.2429,1.2521,1.2524,1.2526,1.2527,0,1.195,1.1946,1.1998,1.2051,1.2094,1.2136,1.2174,1.2207,1.22,1.2247,1.2314,1.2354,1.2433,1.2498,1.2557,1.2578,1.2553,1.255,1.2572,1.2578,1.2576,1.258,1.2325,1.2545,1.2543,1.2542,1.2541,1.254,1.2091,1.2146,1.2177,1.2237,1.2264,1.23,1.2353,1.2364,1.242,1.2482,1.2472,1.2549,1.2585,1.2661,1.2687,1.2748,1.2719,1.275,1.2758,1.2766,1.2775,1.2565,1.2759,1.2758,1.2758,1.2757,1.2757,0,1.2285,1.2303,1.2357,1.2411,1.2459,1.2427,1.2469,1.2511,1.2578,1.2613,1.2663,1.2742,1.2806,1.2826,1.2888,1.2933,1.2923,1.295,1.2948,1.2953,1.2796,1.2772,1.2957,1.2957,1.2957,1.2957,1.2957,1.2957,1.2391,1.2482,1.2482,1.2587,1.2604,1.2677,1.2703,1.2738,1.2766,1.2854,1.2906,1.2917,1.2948,1.3011,1.3069,1.3074,1.3099,1.3131,1.3131,1.2984,1.2964,1.2945,1.2923,1.3136,1.3136,1.3283,1.3284,1.3285]},{"header":{"parameterUnit":"m.s-1","parameterCategory":1,"la1":30.2991,"la2":30.254,"lo1":-89.0895,"lo2":-89.0444,"dy":0.0017,"dx":0.0017,"nx":28,"ny":28,"refTime":"2024-07-10T03:00:00:Z","depth":0,"parameterNumber":3,"parameterNumberName":"V-component_of_WINDS"},"data":[0,0,0,0,0,0,0,0,0,0,0,0,0,0,0,0,0,0,0,0,0,0,0,0,0,0,0,0,0,0,0,0,0,0,0,0,0,0,0,0,0,0,0,0,0,0,0,0,0,0,0,0,0,0,0,0,0,0,-2.5072,-2.5072,0,-2.5079,-2.5079,-2.5079,-2.5094,-2.5095,-2.5095,-2.5095,-2.5098,-2.5098,-2.5098,0,0,0,0,0,0,0,0,0,0,0,0,0,-2.507,-2.507,-2.5072,-2.5072,-2.5072,-2.5079,-2.5079,-2.5079,-2.5094,-2.5095,-2.5095,-2.5096,-2.5098,-2.5098,-2.5098,0,0,0,0,0,0,0,0,0,0,0,0,0,-2.5073,-2.507,-2.5072,-2.5081,-2.5082,-2.5078,-2.5079,-2.5079,-2.5094,-2.5095,-2.5095,-2.5096,-2.5098,-2.5098,-2.5098,-2.5085,0,0,-2.5097,-2.5096,0,0,0,0,0,0,0,0,-2.5073,-2.5073,-2.5079,-2.508,-2.5081,-2.5086,-2.5079,-2.5081,-2.5094,-2.5089,-2.5095,-2.5096,-2.5094,-2.5094,-2.5094,-2.5085,-2.5085,-2.5097,-2.5096,-2.5096,-2.5096,0,0,0,0,0,0,0,-2.5073,-2.5073,-2.5074,-2.5079,-2.5081,-2.5084,-2.5085,-2.508,-2.5088,-2.509,-2.5091,-2.5092,-2.5094,-2.5094,-2.5094,-2.5085,-2.5097,-2.5096,-2.5096,-2.5096,-2.5069,-2.5068,0,0,0,0,0,0,-2.5072,-2.5073,-2.5074,-2.5075,-2.5079,-2.5083,-2.5084,-2.5084,-2.5089,-2.509,-2.5091,-2.5093,-2.5094,-2.5094,-2.5094,-2.5081,-2.5096,-2.5096,-2.5096,-2.5069,-2.5068,-2.5068,0,0,0,0,0,0,-2.5072,-2.5072,-2.5074,-2.5074,-2.5075,-2.5083,-2.5082,-2.5084,-2.5084,-2.509,-2.5091,-2.509,-2.5095,-2.5094,-2.5088,-2.5081,-2.5096,-2.5095,-2.507,-2.5069,-2.5068,-2.5053,0,0,0,0,0,0,-2.5072,-2.5072,-2.5068,-2.5074,-2.5075,-2.5068,-2.5082,-2.5084,-2.5084,-2.5085,-2.5089,-2.509,-2.5095,-2.5088,-2.5087,-2.5081,-2.5095,-2.507,-2.5069,-2.5068,-2.5054,-2.5052,-2.505,0,0,0,0,0,-2.5072,-2.5062,-2.5067,-2.5067,-2.507,-2.5068,-2.5068,-2.5076,-2.5083,-2.5079,-2.5083,-2.5089,-2.5082,-2.5088,-2.5087,-2.5079,-2.5071,-2.507,-2.5068,-2.5055,-2.5052,-2.505,0,0,0,0,0,0,-2.5052,-2.5063,-2.5069,-2.5061,-2.5064,-2.5071,-2.5065,-2.5072,-2.5072,-2.5073,-2.5082,-2.5082,-2.5075,-2.5076,-2.5083,-2.5068,-2.5077,-2.5076,-2.5067,-2.5065,-2.5063,-2.5062,-2.5095,0,0,0,0,0,-2.5048,-2.5046,-2.5055,-2.5047,-2.5048,-2.5057,-2.5056,-2.5062,-2.5065,-2.5065,-2.5069,-2.507,-2.5068,-2.5067,-2.5065,-2.5055,-2.5056,-2.5049,-2.5047,-2.5045,-2.5044,-2.5039,-2.5037,-2.5064,-2.5064,-2.5064,0,0,-2.5037,-2.5042,-2.5041,-2.5044,-2.5046,-2.5044,-2.5057,-2.5054,-2.5053,-2.5064,-2.5059,-2.5062,-2.5064,-2.5056,-2.5052,-2.5057,-2.5037,-2.5044,-2.5042,-2.5042,-2.5038,-2.5035,-2.5033,-2.5063,-2.5064,-2.5064,0,0,-2.5017,-2.5021,-2.5015,-2.5018,-2.5023,-2.5029,-2.5028,-2.5034,-2.5037,-2.5032,-2.5041,-2.5039,-2.5035,-2.5037,-2.5037,-2.5019,-2.5026,-2.5019,-2.5007,-2.5002,-2.5,-2.4998,-2.4992,-2.499,-2.5017,-2.5017,-2.5017,0,-2.5002,-2.5001,-2.5011,-2.5008,-2.5009,-2.5022,-2.5016,-2.5018,-2.5022,-2.5022,-2.5028,-2.5024,-2.5026,-2.5019,-2.5015,-2.5015,-2.5013,-2.5018,-2.5,-2.4998,-2.4997,-2.4991,-2.4989,-2.5016,-2.5016,-2.5016,-2.5017,0,-2.4983,-2.4982,-2.4977,-2.4982,-2.4982,-2.4978,-2.4987,-2.4986,-2.4993,-2.4998,-2.4993,-2.4997,-2.4997,-2.4995,-2.5,-2.4989,-2.4992,-2.4999,-2.5008,-2.4993,-2.4988,-2.4986,-2.5015,-2.5015,-2.5016,-2.5016,0,0,-2.4949,-2.4962,-2.496,-2.4963,-2.497,-2.4969,-2.4965,-2.4967,-2.4966,-2.4969,-2.4966,-2.4963,-2.497,-2.497,-2.4976,-2.4972,-2.4959,-2.498,-2.498,-2.4976,-2.4947,-2.4942,-2.494,-2.4964,-2.4963,-2.4963,-2.4947,0,-2.4931,-2.4926,-2.4937,-2.4929,-2.4929,-2.4942,-2.4939,-2.4942,-2.4947,-2.4947,-2.4952,-2.495,-2.4959,-2.496,-2.4957,-2.4961,-2.4953,-2.4963,-2.496,-2.496,-2.496,-2.4937,-2.4931,-2.4916,-2.4945,-2.4945,-2.4945,0,-2.4908,-2.4911,-2.4905,-2.4914,-2.4914,-2.4911,-2.4914,-2.4914,-2.4918,-2.4922,-2.4924,-2.4931,-2.4928,-2.4938,-2.4933,-2.4939,-2.4939,-2.4941,-2.4941,-2.4941,-2.4951,-2.4936,-2.4911,-2.4909,-2.4942,-2.4942,-2.4942,0,-2.4884,-2.4887,-2.4884,-2.4886,-2.4896,-2.4894,-2.4898,-2.4904,-2.4905,-2.4907,-2.4908,-2.4909,-2.4909,-2.491,-2.4918,-2.4924,-2.4913,-2.4923,-2.4916,-2.4915,-2.4912,-2.4912,-2.4887,-2.4912,-2.4912,-2.4912,-2.4912,0,-2.4862,-2.4858,-2.4874,-2.4872,-2.4867,-2.4879,-2.4874,-2.4879,-2.4884,-2.4883,-2.4894,-2.4892,-2.4903,-2.4902,-2.4908,-2.4904,-2.4904,-2.4907,-2.4908,-2.4906,-2.4905,-2.4905,-2.4907,-2.4911,-2.4912,-2.4912,-2.4912,0,-2.4835,-2.4846,-2.4843,-2.4854,-2.4857,-2.4853,-2.4862,-2.486,-2.4867,-2.4865,-2.4866,-2.4875,-2.4876,-2.4884,-2.4885,-2.4889,-2.4882,-2.4886,-2.4881,-2.4882,-2.4875,-2.4876,-2.4849,-2.4846,-2.4873,-2.4872,-2.4872,0,-2.482,-2.4817,-2.4829,-2.483,-2.4834,-2.4835,-2.4836,-2.4848,-2.4849,-2.4855,-2.4853,-2.4854,-2.4856,-2.4856,-2.4862,-2.4864,-2.4867,-2.4858,-2.4867,-2.4865,-2.4867,-2.4867,-2.4867,-2.4855,-2.4855,-2.4855,-2.4855,0,-2.4793,-2.4799,-2.4801,-2.4806,-2.4808,-2.4812,-2.4817,-2.4816,-2.4829,-2.483,-2.4831,-2.4833,-2.4836,-2.4837,-2.484,-2.4843,-2.4851,-2.4852,-2.485,-2.4847,-2.4845,-2.4847,-2.4876,-2.4852,-2.4852,-2.4853,-2.4853,-2.4853,-2.4771,-2.477,-2.4778,-2.4781,-2.4786,-2.4791,-2.479,-2.4798,-2.48,-2.4804,-2.481,-2.4811,-2.4817,-2.4822,-2.4825,-2.4825,-2.4829,-2.4827,-2.4826,-2.4826,-2.4825,-2.4846,-2.4825,-2.4825,-2.4825,-2.4826,-2.4826,0,-2.4745,-2.4751,-2.4754,-2.4761,-2.4764,-2.4773,-2.4779,-2.478,-2.4781,-2.4786,-2.4789,-2.479,-2.4792,-2.48,-2.4803,-2.4801,-2.4805,-2.4802,-2.4802,-2.4802,-2.482,-2.4821,-2.4799,-2.4799,-2.4799,-2.4799,-2.4799,-2.4799,-2.4731,-2.473,-2.4737,-2.4739,-2.4745,-2.4747,-2.475,-2.4754,-2.4759,-2.4761,-2.4763,-2.4769,-2.4775,-2.4779,-2.4781,-2.4783,-2.4783,-2.4779,-2.4782,-2.4798,-2.4801,-2.4803,-2.4805,-2.4779,-2.4779,-2.4765,-2.4764,-2.4764]}]]